Location: Ferchesar
(52.6477°N, 12.4298°E)
Time: 00:36:51
(UTC+01:00)

Transit 2A Rocket - Pass Details

Date: 16 December 2021
Orbit: 584 x 918 km, 66.7° (Epoch: 21 January)

Event Time Altitude Azimuth Distance (km) Brightness Sun altitude
Exits shadow 07:24:21 - 263° (W) 3,292 7.8 -7.3°
Reaches altitude 10° 07:26:34 10° 272° (W) 2,572 7.2 -7.0°
Maximum altitude 07:31:52 31° 334° (NNW) 1,556 6.2 -6.4°
Drops below altitude 10° 07:37:17 10° 35° (NE) 2,619 7.8 -5.7°
Sets 07:40:08 0° 46° (NE) 3,550 8.6 -5.3°
